Time,TemperatureF,DewpointF,PressureIn,WindDirection,WindDirectionDegrees,WindSpeedMPH,WindSpeedGustMPH,Humidity,HourlyPrecipIn,Conditions,Clouds,dailyrainin,SoftwareType,DateUTC
2013-05-21 00:03:00,74.0,65.0,-100.00,South,170,5.0,9.0,74,0.00,,,-99.99,,2013-05-21 04:03:00,
2013-05-21 00:13:00,74.0,65.0,-100.00,South,175,6.0,9.0,73,0.00,,,-99.99,,2013-05-21 04:13:00,
2013-05-21 00:23:00,74.0,65.0,-100.00,South,170,6.0,9.0,74,0.00,,,-99.99,,2013-05-21 04:23:00,
2013-05-21 00:33:00,74.0,65.0,-100.00,South,170,5.0,9.0,74,0.00,,,-99.99,,2013-05-21 04:33:00,
2013-05-21 00:42:00,74.0,65.0,-100.00,SSE,165,4.0,7.0,75,0.00,,,-99.99,,2013-05-21 04:42:00,
2013-05-21 00:52:00,73.0,65.0,-100.00,South,170,5.0,8.0,75,0.00,,,-99.99,,2013-05-21 04:52:00,
2013-05-21 01:02:00,72.0,65.0,-100.00,SSE,165,3.0,6.0,79,0.00,,,-99.99,,2013-05-21 05:02:00,
2013-05-21 01:12:00,72.0,65.0,-100.00,SSE,155,2.0,6.0,79,0.00,,,-99.99,,2013-05-21 05:12:00,
2013-05-21 01:22:00,72.0,65.0,-100.00,SSE,155,2.0,6.0,79,0.00,,,-99.99,,2013-05-21 05:22:00,
2013-05-21 01:32:00,72.0,65.0,-100.00,South,175,4.0,8.0,80,0.00,,,-99.99,,2013-05-21 05:32:00,
2013-05-21 01:42:00,72.0,65.0,-100.00,South,175,4.0,8.0,80,0.00,,,-99.99,,2013-05-21 05:42:00,
2013-05-21 01:51:00,72.0,65.0,-100.00,South,175,4.0,8.0,80,0.00,,,-99.99,,2013-05-21 05:51:00,
2013-05-21 02:02:00,72.0,65.0,-100.00,South,175,4.0,8.0,80,0.00,,,-99.99,,2013-05-21 06:02:00,
2013-05-21 02:12:00,73.0,66.0,-100.00,South,170,7.0,13.0,79,0.00,,,-99.99,,2013-05-21 06:12:00,
2013-05-21 02:21:00,72.0,66.0,-100.00,South,185,7.0,12.0,81,0.00,,,-99.99,,2013-05-21 06:21:00,
2013-05-21 02:32:00,72.0,66.0,-100.00,South,190,7.0,15.0,81,0.00,,,-99.99,,2013-05-21 06:32:00,
2013-05-21 02:42:00,72.0,66.0,-100.00,South,175,7.0,12.0,81,0.00,,,-99.99,,2013-05-21 06:42:00,
2013-05-21 02:52:00,72.0,66.0,-100.00,South,180,9.0,12.0,81,0.00,,,-99.99,,2013-05-21 06:52:00,
2013-05-21 03:01:00,72.0,66.0,-100.00,South,190,6.0,14.0,82,0.00,,,-99.99,,2013-05-21 07:01:00,
2013-05-21 03:11:00,72.0,66.0,-100.00,South,175,6.0,10.0,82,0.00,,,-99.99,,2013-05-21 07:11:00,
2013-05-21 03:22:00,72.0,66.0,-100.00,South,170,6.0,11.0,82,0.00,,,-99.99,,2013-05-21 07:22:00,
2013-05-21 03:31:00,72.0,66.0,-100.00,South,170,7.0,14.0,82,0.00,,,-99.99,,2013-05-21 07:31:00,
2013-05-21 03:41:00,72.0,66.0,-100.00,South,170,7.0,14.0,82,0.00,,,-99.99,,2013-05-21 07:41:00,
2013-05-21 03:52:00,72.0,66.0,-100.00,South,170,7.0,14.0,82,0.00,,,-99.99,,2013-05-21 07:52:00,
2013-05-21 04:02:00,72.0,66.0,-100.00,South,180,7.0,15.0,82,0.00,,,-99.99,,2013-05-21 08:02:00,
2013-05-21 04:11:00,72.0,66.0,-100.00,South,180,7.0,12.0,82,0.00,,,-99.99,,2013-05-21 08:11:00,
2013-05-21 04:21:00,72.0,66.0,-100.00,South,180,7.0,11.0,83,0.00,,,-99.99,,2013-05-21 08:21:00,
2013-05-21 04:31:00,72.0,66.0,-100.00,South,180,7.0,11.0,83,0.00,,,-99.99,,2013-05-21 08:31:00,
2013-05-21 04:41:00,71.0,66.0,-100.00,South,175,7.0,12.0,84,0.00,,,-99.99,,2013-05-21 08:41:00,
2013-05-21 04:52:00,71.0,66.0,-100.00,South,175,7.0,12.0,84,0.00,,,-99.99,,2013-05-21 08:52:00,
2013-05-21 05:01:00,71.0,66.0,-100.00,SSE,165,7.0,12.0,84,0.00,,,-99.99,,2013-05-21 09:01:00,
2013-05-21 05:11:00,71.0,66.0,-100.00,South,185,9.0,13.0,83,0.00,,,-99.99,,2013-05-21 09:11:00,
2013-05-21 05:21:00,71.0,66.0,-100.00,South,170,7.0,16.0,83,0.00,,,-99.99,,2013-05-21 09:21:00,
2013-05-21 05:33:00,71.0,66.0,-100.00,South,185,9.0,13.0,83,0.00,,,-99.99,,2013-05-21 09:33:00,
2013-05-21 05:42:00,71.0,66.0,-100.00,South,190,9.0,15.0,82,0.00,,,-99.99,,2013-05-21 09:42:00,
2013-05-21 05:52:00,71.0,66.0,-100.00,SSW,195,8.0,17.0,82,0.00,,,-99.99,,2013-05-21 09:52:00,
2013-05-21 06:02:00,72.0,65.0,-100.00,SW,225,4.0,18.0,81,0.00,,,-99.99,,2013-05-21 10:02:00,
2013-05-21 06:12:00,72.0,65.0,-100.00,South,170,7.0,15.0,78,0.00,,,-99.99,,2013-05-21 10:12:00,
2013-05-21 06:22:00,71.0,64.0,-100.00,SSW,210,4.0,11.0,77,0.00,,,-99.99,,2013-05-21 10:22:00,
2013-05-21 06:32:00,71.0,63.0,-100.00,SW,220,6.0,16.0,74,0.00,,,-99.99,,2013-05-21 10:32:00,
2013-05-21 06:42:00,71.0,61.0,-100.00,South,185,5.0,11.0,73,0.00,,,-99.99,,2013-05-21 10:42:00,
2013-05-21 06:52:00,69.0,61.0,-100.00,South,170,2.0,11.0,75,0.00,,,-99.99,,2013-05-21 10:52:00,
2013-05-21 07:02:00,69.0,61.0,-100.00,SW,235,5.0,9.0,76,0.00,,,-99.99,,2013-05-21 11:02:00,
2013-05-21 07:12:00,68.0,60.0,-100.00,SSW,195,3.0,7.0,77,0.00,,,-99.99,,2013-05-21 11:12:00,
2013-05-21 07:21:00,67.0,60.0,-100.00,West,280,1.0,11.0,77,0.00,,,-99.99,,2013-05-21 11:21:00,
2013-05-21 07:32:00,67.0,60.0,-100.00,South,185,4.0,8.0,78,0.00,,,-99.99,,2013-05-21 11:32:00,
2013-05-21 07:42:00,67.0,60.0,-100.00,South,185,6.0,9.0,80,0.00,,,-99.99,,2013-05-21 11:42:00,
2013-05-21 07:51:00,67.0,60.0,-100.00,South,180,2.0,6.0,78,0.00,,,-99.99,,2013-05-21 11:51:00,
2013-05-21 08:01:00,67.0,60.0,-100.00,South,175,5.0,9.0,77,0.00,,,-99.99,,2013-05-21 12:01:00,
2013-05-21 08:11:00,68.0,60.0,-100.00,South,175,7.0,11.0,76,0.00,,,-99.99,,2013-05-21 12:11:00,
2013-05-21 08:21:00,68.0,60.0,-100.00,South,180,8.0,12.0,75,0.00,,,-99.99,,2013-05-21 12:21:00,
2013-05-21 08:32:00,69.0,60.0,-100.00,South,175,8.0,14.0,72,0.00,,,-99.99,,2013-05-21 12:32:00,
2013-05-21 08:42:00,70.0,60.0,-100.00,South,175,8.0,12.0,70,0.00,,,-99.99,,2013-05-21 12:42:00,
2013-05-21 08:51:00,70.0,60.0,-100.00,SSW,195,7.0,16.0,69,0.00,,,-99.99,,2013-05-21 12:51:00,
2013-05-21 09:01:00,71.0,60.0,-100.00,South,185,5.0,16.0,67,0.00,,,-99.99,,2013-05-21 13:01:00,
2013-05-21 09:12:00,71.0,60.0,-100.00,South,180,5.0,12.0,66,0.00,,,-99.99,,2013-05-21 13:12:00,
2013-05-21 09:22:00,73.0,59.0,-100.00,South,180,6.0,12.0,63,0.00,,,-99.99,,2013-05-21 13:22:00,
2013-05-21 09:32:00,73.0,59.0,-100.00,South,190,6.0,11.0,61,0.00,,,-99.99,,2013-05-21 13:32:00,
2013-05-21 09:41:00,74.0,59.0,-100.00,South,180,7.0,12.0,58,0.00,,,-99.99,,2013-05-21 13:41:00,
2013-05-21 09:52:00,74.0,59.0,-100.00,SSW,200,7.0,16.0,58,0.00,,,-99.99,,2013-05-21 13:52:00,
2013-05-21 10:02:00,75.0,59.0,-100.00,SSW,210,9.0,16.0,57,0.00,,,-99.99,,2013-05-21 14:02:00,
2013-05-21 10:11:00,75.0,59.0,-100.00,SW,225,11.0,22.0,59,0.00,,,-99.99,,2013-05-21 14:11:00,
2013-05-21 10:21:00,75.0,60.0,-100.00,SW,230,9.0,24.0,59,0.00,,,-99.99,,2013-05-21 14:21:00,
2013-05-21 10:32:00,73.0,60.0,-100.00,South,180,11.0,17.0,62,0.00,,,-99.99,,2013-05-21 14:32:00,
2013-05-21 10:41:00,73.0,60.0,-100.00,South,185,7.0,18.0,63,0.00,,,-99.99,,2013-05-21 14:41:00,
2013-05-21 10:51:00,74.0,60.0,-100.00,South,180,11.0,16.0,61,0.00,,,-99.99,,2013-05-21 14:51:00,
2013-05-21 11:01:00,75.0,60.0,-100.00,South,185,14.0,21.0,60,0.00,,,-99.99,,2013-05-21 15:01:00,
2013-05-21 11:11:00,75.0,60.0,-100.00,SSE,165,7.0,16.0,59,0.00,,,-99.99,,2013-05-21 15:11:00,
2013-05-21 11:21:00,76.0,59.0,-100.00,SSE,150,13.0,17.0,55,0.00,,,-99.99,,2013-05-21 15:21:00,
2013-05-21 11:33:00,77.0,59.0,-100.00,SE,145,13.0,18.0,54,0.00,,,-99.99,,2013-05-21 15:33:00,
2013-05-21 11:42:00,78.0,61.0,-100.00,SSE,160,9.0,16.0,55,0.00,,,-99.99,,2013-05-21 15:42:00,
2013-05-21 11:52:00,78.0,60.0,-100.00,South,185,13.0,19.0,53,0.00,,,-99.99,,2013-05-21 15:52:00,
2013-05-21 12:03:00,79.0,59.0,-100.00,South,180,14.0,25.0,49,0.00,,,-99.99,,2013-05-21 16:03:00,
2013-05-21 12:13:00,80.0,60.0,-100.00,South,175,12.0,23.0,51,0.00,,,-99.99,,2013-05-21 16:13:00,
2013-05-21 12:23:00,79.0,61.0,-100.00,South,180,12.0,25.0,52,0.00,,,-99.99,,2013-05-21 16:23:00,
2013-05-21 12:32:00,80.0,59.0,-100.00,South,185,17.0,26.0,48,0.00,,,-99.99,,2013-05-21 16:32:00,
2013-05-21 12:42:00,80.0,58.0,-100.00,South,185,11.0,25.0,47,0.00,,,-99.99,,2013-05-21 16:42:00,
2013-05-21 12:52:00,80.0,59.0,-100.00,South,180,13.0,30.0,49,0.00,,,-99.99,,2013-05-21 16:52:00,
2013-05-21 13:02:00,81.0,60.0,-100.00,SW,235,11.0,26.0,49,0.00,,,-99.99,,2013-05-21 17:02:00,
2013-05-21 13:12:00,80.0,59.0,-100.00,SW,225,9.0,25.0,49,0.00,,,-99.99,,2013-05-21 17:12:00,
2013-05-21 13:23:00,80.0,59.0,-100.00,South,180,12.0,29.0,48,0.00,,,-99.99,,2013-05-21 17:23:00,
2013-05-21 13:33:00,81.0,58.0,-100.00,SSW,195,10.0,22.0,46,0.00,,,-99.99,,2013-05-21 17:33:00,
2013-05-21 13:43:00,81.0,58.0,-100.00,West,270,9.0,25.0,45,0.00,,,-99.99,,2013-05-21 17:43:00,
2013-05-21 13:52:00,82.0,58.0,-100.00,SSW,210,11.0,21.0,44,0.00,,,-99.99,,2013-05-21 17:52:00,
2013-05-21 14:02:00,81.0,58.0,-100.00,South,175,14.0,22.0,46,0.00,,,-99.99,,2013-05-21 18:02:00,
2013-05-21 14:12:00,82.0,60.0,-100.00,SW,225,8.0,17.0,48,0.00,,,-99.99,,2013-05-21 18:12:00,
2013-05-21 14:22:00,82.0,58.0,-100.00,SSE,165,12.0,20.0,45,0.00,,,-99.99,,2013-05-21 18:22:00,
2013-05-21 14:32:00,82.0,59.0,-100.00,SSW,200,6.0,25.0,45,0.00,,,-99.99,,2013-05-21 18:32:00,
2013-05-21 14:42:00,83.0,58.0,-100.00,South,180,7.0,15.0,44,0.00,,,-99.99,,2013-05-21 18:42:00,
2013-05-21 14:52:00,83.0,60.0,-100.00,South,170,10.0,19.0,45,0.00,,,-99.99,,2013-05-21 18:52:00,
2013-05-21 15:01:00,83.0,59.0,-100.00,South,180,11.0,22.0,45,0.00,,,-99.99,,2013-05-21 19:01:00,
2013-05-21 15:11:00,83.0,58.0,-100.00,SW,230,9.0,24.0,43,0.00,,,-99.99,,2013-05-21 19:11:00,
2013-05-21 15:21:00,83.0,59.0,-100.00,South,190,9.0,20.0,43,0.00,,,-99.99,,2013-05-21 19:21:00,
2013-05-21 15:32:00,83.0,60.0,-100.00,South,170,14.0,21.0,45,0.00,,,-99.99,,2013-05-21 19:32:00,
2013-05-21 15:42:00,85.0,59.0,-100.00,SSW,195,12.0,19.0,42,0.00,,,-99.99,,2013-05-21 19:42:00,
2013-05-21 15:52:00,85.0,59.0,-100.00,SSW,205,9.0,19.0,41,0.00,,,-99.99,,2013-05-21 19:52:00,
2013-05-21 16:03:00,84.0,60.0,-100.00,SSW,200,9.0,16.0,44,0.00,,,-99.99,,2013-05-21 20:03:00,
2013-05-21 16:11:00,84.0,59.0,-100.00,South,180,9.0,25.0,42,0.00,,,-99.99,,2013-05-21 20:11:00,
2013-05-21 16:22:00,85.0,59.0,-100.00,South,175,11.0,18.0,42,0.00,,,-99.99,,2013-05-21 20:22:00,
2013-05-21 16:32:00,84.0,59.0,-100.00,South,190,6.0,21.0,42,0.00,,,-99.99,,2013-05-21 20:32:00,
2013-05-21 16:42:00,85.0,59.0,-100.00,South,170,7.0,25.0,41,0.00,,,-99.99,,2013-05-21 20:42:00,
2013-05-21 16:52:00,84.0,57.0,-100.00,SSW,200,9.0,22.0,39,0.00,,,-99.99,,2013-05-21 20:52:00,
2013-05-21 17:02:00,84.0,58.0,-100.00,South,175,12.0,18.0,42,0.00,,,-99.99,,2013-05-21 21:02:00,
2013-05-21 17:11:00,84.0,58.0,-100.00,South,185,6.0,18.0,41,0.00,,,-99.99,,2013-05-21 21:11:00,
2013-05-21 17:21:00,83.0,58.0,-100.00,South,180,11.0,21.0,42,0.00,,,-99.99,,2013-05-21 21:21:00,
2013-05-21 17:33:00,83.0,58.0,-100.00,SSW,200,6.0,16.0,42,0.00,,,-99.99,,2013-05-21 21:33:00,
2013-05-21 17:43:00,83.0,59.0,-100.00,South,170,9.0,18.0,44,0.00,,,-99.99,,2013-05-21 21:43:00,
2013-05-21 17:53:00,83.0,59.0,-100.00,South,185,11.0,19.0,44,0.00,,,-99.99,,2013-05-21 21:53:00,
2013-05-21 18:02:00,83.0,60.0,-100.00,South,170,11.0,19.0,45,0.00,,,-99.99,,2013-05-21 22:02:00,
2013-05-21 18:12:00,83.0,59.0,-100.00,SSW,195,11.0,23.0,44,0.00,,,-99.99,,2013-05-21 22:12:00,
2013-05-21 18:22:00,83.0,59.0,-100.00,SSW,195,11.0,24.0,44,0.00,,,-99.99,,2013-05-21 22:22:00,
2013-05-21 18:33:00,83.0,58.0,-100.00,South,190,11.0,20.0,42,0.00,,,-99.99,,2013-05-21 22:33:00,
2013-05-21 18:42:00,82.0,59.0,-100.00,South,185,11.0,23.0,45,0.00,,,-99.99,,2013-05-21 22:42:00,
2013-05-21 18:52:00,82.0,60.0,-100.00,South,180,9.0,24.0,46,0.00,,,-99.99,,2013-05-21 22:52:00,
2013-05-21 19:02:00,82.0,60.0,-100.00,South,190,7.0,19.0,47,0.00,,,-99.99,,2013-05-21 23:02:00,
2013-05-21 19:12:00,82.0,60.0,-100.00,South,185,9.0,21.0,48,0.00,,,-99.99,,2013-05-21 23:12:00,
2013-05-21 19:22:00,82.0,60.0,-100.00,South,175,7.0,21.0,49,0.00,,,-99.99,,2013-05-21 23:22:00,
2013-05-21 19:32:00,81.0,61.0,-100.00,South,180,10.0,19.0,50,0.00,,,-99.99,,2013-05-21 23:32:00,
2013-05-21 19:42:00,81.0,61.0,-100.00,South,185,6.0,16.0,50,0.00,,,-99.99,,2013-05-21 23:42:00,
2013-05-21 19:52:00,81.0,61.0,-100.00,South,175,10.0,16.0,51,0.00,,,-99.99,,2013-05-21 23:52:00,
2013-05-21 20:01:00,80.0,61.0,-100.00,South,190,8.0,17.0,51,0.00,,,-99.99,,2013-05-22 00:01:00,
2013-05-21 20:11:00,80.0,61.0,-100.00,South,180,9.0,15.0,52,0.00,,,-99.99,,2013-05-22 00:11:00,
2013-05-21 20:21:00,80.0,62.0,-100.00,South,175,6.0,12.0,54,0.00,,,-99.99,,2013-05-22 00:21:00,
2013-05-21 20:32:00,79.0,62.0,-100.00,South,180,8.0,14.0,54,0.00,,,-99.99,,2013-05-22 00:32:00,
2013-05-21 20:41:00,79.0,62.0,-100.00,South,180,8.0,14.0,55,0.00,,,-99.99,,2013-05-22 00:41:00,
2013-05-21 20:51:00,78.0,62.0,-100.00,South,180,6.0,9.0,56,0.00,,,-99.99,,2013-05-22 00:51:00,
2013-05-21 21:01:00,78.0,62.0,-100.00,South,185,7.0,11.0,56,0.00,,,-99.99,,2013-05-22 01:01:00,
2013-05-21 21:11:00,78.0,61.0,-100.00,South,180,6.0,11.0,57,0.00,,,-99.99,,2013-05-22 01:11:00,
2013-05-21 21:21:00,77.0,61.0,-100.00,South,180,4.0,9.0,57,0.00,,,-99.99,,2013-05-22 01:21:00,
2013-05-21 21:32:00,77.0,61.0,-100.00,South,180,4.0,9.0,57,0.00,,,-99.99,,2013-05-22 01:32:00,
2013-05-21 21:42:00,76.0,61.0,-100.00,South,180,4.0,7.0,59,0.00,,,-99.99,,2013-05-22 01:42:00,
2013-05-21 21:52:00,76.0,61.0,-100.00,South,190,2.0,6.0,59,0.00,,,-99.99,,2013-05-22 01:52:00,
2013-05-21 22:02:00,76.0,61.0,-100.00,South,175,3.0,7.0,60,0.00,,,-99.99,,2013-05-22 02:02:00,
2013-05-21 22:12:00,75.0,61.0,-100.00,South,170,4.0,7.0,61,0.00,,,-99.99,,2013-05-22 02:12:00,
2013-05-21 22:21:00,74.0,60.0,-100.00,SSE,160,4.0,7.0,63,0.00,,,-99.99,,2013-05-22 02:21:00,
2013-05-21 22:32:00,74.0,61.0,-100.00,SSW,195,2.0,6.0,62,0.00,,,-99.99,,2013-05-22 02:32:00,
2013-05-21 22:42:00,74.0,61.0,-100.00,South,180,5.0,7.0,62,0.00,,,-99.99,,2013-05-22 02:42:00,
2013-05-21 22:51:00,74.0,61.0,-100.00,South,170,4.0,9.0,63,0.00,,,-99.99,,2013-05-22 02:51:00,
2013-05-21 23:01:00,74.0,61.0,-100.00,SSE,165,4.0,7.0,64,0.00,,,-99.99,,2013-05-22 03:01:00,
2013-05-21 23:11:00,74.0,61.0,-100.00,South,175,6.0,9.0,64,0.00,,,-99.99,,2013-05-22 03:11:00,
2013-05-21 23:21:00,74.0,62.0,-100.00,South,175,10.0,14.0,64,0.00,,,-99.99,,2013-05-22 03:21:00,
2013-05-21 23:33:00,74.0,62.0,-100.00,South,170,7.0,14.0,65,0.00,,,-99.99,,2013-05-22 03:33:00,
2013-05-21 23:43:00,74.0,62.0,-100.00,South,190,7.0,12.0,66,0.00,,,-99.99,,2013-05-22 03:43:00,
2013-05-21 23:53:00,73.0,62.0,-100.00,South,185,7.0,11.0,67,0.00,,,-99.99,,2013-05-22 03:53:00,